Location: Marysville Observatory
(48.1092°N, 122.1645°W)
Time: 16:05:26
(UTC-07:00)

Amateur Radio Satellites - All Passes

Search period start: 22 October 2014 15:35
Search period end: 23 October 2014 15:35
Location: Marysville Observatory, 48.1092°N, 122.1645°W

Satellite Date Start Highest point End Downlink Frequencies (MHz)
Time Altitude Azimuth
Uosat F 22 Oct 15:35:21 15:39:36 28° 62° (ENE) 15:43:53 435.120 FM
ITAMSAT 1 22 Oct 15:36:44 15:40:56 24° 267° (W) 15:45:11 435.822 SSB
Gurwin Techsat 1B 22 Oct 15:40:48 15:45:47 40° 263° (W) 15:50:48 435.225 FM
TMSAT-1 22 Oct 15:53:40 15:58:39 41° 262° (W) 16:03:41 436.925 FM
AO-7 22 Oct 16:21:53 16:30:10 86° 251° (WSW) 16:38:32 29.400 - 29.500 MHz
ISS 22 Oct 16:32:43 16:36:00 50° 349° (N) 16:39:16 145.800 FM
Hamsat 22 Oct 16:49:21 16:52:07 17° 62° (ENE) 16:54:52 145.90 MHz
KITSAT 1 22 Oct 16:49:40 16:56:02 25° 344° (NNW) 17:02:26 435.175 FM
UOSAT-12 22 Oct 16:50:02 16:54:38 56° 314° (NW) 16:59:19 437.025 FM, 437.400 FM
Saudisat 1A 22 Oct 16:54:30 16:58:57 79° 51° (NE) 17:03:23 436.775 MHz
SO-50 22 Oct 16:56:17 16:59:07 16° 338° (NNW) 17:02:00 436.795 FM
JAS-2 22 Oct 16:56:29 17:02:05 42° 63° (ENE) 17:08:23 435.800 - 435.900 CW/SSB, 435.910 FM
OPAL 22 Oct 17:06:13 17:07:51 12° 88° (E) 17:09:29 ?
Uosat F 22 Oct 17:13:25 17:18:12 44° 261° (W) 17:23:03 435.120 FM
ISS 22 Oct 18:09:47 18:13:03 49° 10° (N) 18:16:19 145.800 FM
SO-67 22 Oct 18:10:28 18:12:14 14° 63° (ENE) 18:13:59 435.3500 MHz FM
AO-7 22 Oct 18:18:17 18:24:08 21° 271° (W) 18:30:02 29.400 - 29.500 MHz
Hamsat 22 Oct 18:23:32 18:27:41 56° 260° (W) 18:31:50 145.90 MHz
UOSAT-12 22 Oct 18:32:42 18:35:47 17° 336° (NNW) 18:38:53 437.025 FM, 437.400 FM
Saudisat 1A 22 Oct 18:35:26 18:37:57 15° 249° (WSW) 18:40:28 436.775 MHz
SO-50 22 Oct 18:40:30 18:41:41 11° 3° (N) 18:42:53 436.795 FM
JAS-2 22 Oct 18:41:42 18:47:12 39° 266° (W) 18:53:27 435.800 - 435.900 CW/SSB, 435.910 FM
OPAL 22 Oct 18:42:31 18:47:33 83° 107° (ESE) 18:52:29 ?
STRAND 1 22 Oct 18:45:36 18:48:25 15° 88° (E) 18:51:13 ?
KITSAT 1 22 Oct 18:48:19 18:54:35 24° 14° (NNE) 19:00:49 435.175 FM
SO-67 22 Oct 19:41:29 19:44:50 49° 261° (W) 19:48:12 435.3500 MHz FM
HO-68 22 Oct 19:41:31 19:47:33 31° 55° (NE) 19:53:37 435.675 MHz FM
ISS 22 Oct 19:46:32 19:49:50 59° 209° (SSW) 19:53:07 145.800 FM
AO-40 22 Oct 19:55:16 01:03:35 34° 156° (SSE) 02:45:18 Beacon 2401.320
UOSAT-12 22 Oct 20:16:47 20:17:53 11° 0° (N) 20:19:00 437.025 FM, 437.400 FM
SO-50 22 Oct 20:20:43 20:24:08 19° 27° (NNE) 20:27:36 436.795 FM
OPAL 22 Oct 20:22:39 20:25:48 17° 306° (NW) 20:28:56 ?
STRAND 1 22 Oct 20:23:05 20:28:17 84° 286° (WNW) 20:33:26 ?
Oscar 11 22 Oct 20:32:21 20:34:41 14° 59° (ENE) 20:37:02 145.825 FM, Beacon 2401.500 USB
KITSAT 1 22 Oct 20:44:23 20:52:11 48° 41° (NE) 20:59:56 435.175 FM
ZACube-1 22 Oct 21:14:20 21:17:25 18° 61° (ENE) 21:20:29 437.345 MHz
UKube-1 22 Oct 21:22:33 21:26:43 47° 69° (ENE) 21:30:55 145.840 MHz, 145.915 MHz
ISS 22 Oct 21:24:51 21:25:57 11° 226° (SW) 21:27:02 145.800 FM
HO-68 22 Oct 21:27:39 21:34:46 68° 256° (WSW) 21:41:58 435.675 MHz FM
UOSAT-12 22 Oct 21:56:48 21:59:59 17° 25° (NNE) 22:03:08 437.025 FM, 437.400 FM
FUNcube-1 22 Oct 21:58:07 22:02:26 42° 69° (ENE) 22:06:43 145.950 - 145.970 MHz USB
RS-15 22 Oct 22:00:19 22:09:28 32° 106° (ESE) 22:18:32 29.354 - 29.394 USB, Beacon 29.352 USB
SO-50 22 Oct 22:00:44 22:05:33 68° 49° (NE) 22:10:25 436.795 FM
STRAND 1 22 Oct 22:03:53 22:06:43 15° 306° (NW) 22:09:32 ?
Oscar 11 22 Oct 22:05:59 22:10:19 76° 257° (WSW) 22:14:40 145.825 FM, Beacon 2401.500 USB
KITSAT 1 22 Oct 22:39:58 22:47:47 55° 244° (WSW) 22:55:33 435.175 FM
ZACube-1 22 Oct 22:48:49 22:53:23 64° 259° (WSW) 22:57:54 437.345 MHz
UKube-1 22 Oct 22:59:55 23:03:09 20° 267° (W) 23:06:25 145.840 MHz, 145.915 MHz
HO-68 22 Oct 23:20:37 23:23:50 13° 276° (W) 23:27:05 435.675 MHz FM
FUNcube-1 22 Oct 23:35:14 23:38:58 24° 267° (W) 23:42:40 145.950 - 145.970 MHz USB
UOSAT-12 22 Oct 23:36:23 23:41:06 59° 47° (NE) 23:45:43 437.025 FM, 437.400 FM
SO-50 22 Oct 23:42:08 23:45:41 21° 247° (WSW) 23:49:16 436.795 FM
RS-15 23 Oct 00:09:40 00:20:40 82° 310° (NW) 00:31:43 29.354 - 29.394 USB, Beacon 29.352 USB
Oscar 10/S400 23 Oct 00:28:25 01:24:54 25° 229° (SW) 04:34:19 145.825 - 145.975 CW/USB, Beacon 145.810 USB
KITSAT 1 23 Oct 00:39:35 00:41:21 11° 264° (W) 00:43:08 435.175 FM
MaSat-1 23 Oct 00:40:34 00:44:34 49° 116° (ESE) 00:48:12 437.345 MHz
UOSAT-12 23 Oct 01:17:13 01:20:53 23° 246° (WSW) 01:24:30 437.025 FM, 437.400 FM
Oscar 16 23 Oct 01:44:39 01:48:29 21° 91° (E) 01:52:17 437.025 USB, Beacon 2401.1428
AO-Echo 23 Oct 01:56:40 01:59:46 16° 88° (E) 02:02:51 ?
JAS-1B 23 Oct 01:56:50 02:02:22 28° 95° (E) 02:08:40 435.800 - 435.900 CW/SSB
Uribyol 2 23 Oct 02:01:39 02:04:03 13° 87° (E) 02:06:26 436.500 FM
ITAMSAT 1 23 Oct 02:06:56 02:09:36 14° 87° (E) 02:12:15 435.822 SSB
MaSat-1 23 Oct 02:17:26 02:20:27 20° 311° (NW) 02:23:14 437.345 MHz
RS-15 23 Oct 02:24:48 02:34:48 39° 339° (NNW) 02:44:59 29.354 - 29.394 USB, Beacon 29.352 USB
Oscar 19 23 Oct 02:37:41 02:42:45 58° 101° (E) 02:47:46 437.125 CW, 437.150 USB
AO-27 23 Oct 02:50:33 02:55:17 33° 96° (E) 02:59:59 436.795 MHz FM
Oscar 16 23 Oct 03:23:11 03:28:14 59° 290° (WNW) 03:33:15 437.025 USB, Beacon 2401.1428
Sapphire 23 Oct 03:28:12 03:29:55 12° 102° (ESE) 03:31:39 437.095 MHz 1200 baud AX-25 AFSK
AO-Echo 23 Oct 03:33:51 03:39:10 84° 286° (WNW) 03:44:30 ?
Uribyol 2 23 Oct 03:39:02 03:44:18 88° 105° (ESE) 03:49:31 436.500 FM
ITAMSAT 1 23 Oct 03:44:33 03:49:50 89° 286° (WNW) 03:55:03 435.822 SSB
JAS-1B 23 Oct 03:47:05 03:53:19 62° 291° (WNW) 04:00:42 435.800 - 435.900 CW/SSB
PCSat 23 Oct 03:48:35 03:52:20 19° 106° (ESE) 03:56:07 145.825 MHz
Gurwin Techsat 1B 23 Oct 03:52:51 03:58:09 62° 102° (ESE) 04:03:24 435.225 FM
TMSAT-1 23 Oct 04:05:22 04:10:39 61° 101° (E) 04:15:53 436.925 FM
Oscar 19 23 Oct 04:17:45 04:21:44 23° 300° (WNW) 04:25:41 437.125 CW, 437.150 USB
AO-7 23 Oct 04:20:04 04:26:43 26° 91° (E) 04:33:20 29.400 - 29.500 MHz
OPAL 23 Oct 04:22:52 04:27:29 35° 62° (ENE) 04:32:04 ?
AO-27 23 Oct 04:30:01 04:34:51 39° 294° (WNW) 04:39:39 436.795 MHz FM
RS-15 23 Oct 04:41:00 04:50:51 35° 14° (NNE) 05:00:56 29.354 - 29.394 USB, Beacon 29.352 USB
Oscar 16 23 Oct 05:05:30 05:06:34 11° 309° (NW) 05:07:37 437.025 USB, Beacon 2401.1428
Sapphire 23 Oct 05:06:59 05:12:21 71° 120° (ESE) 05:17:47 437.095 MHz 1200 baud AX-25 AFSK
AO-Echo 23 Oct 05:14:09 05:17:10 16° 305° (NW) 05:20:12 ?
Uosat F 23 Oct 05:17:14 05:22:03 43° 99° (E) 05:26:51 435.120 FM
Uribyol 2 23 Oct 05:19:52 05:23:05 17° 305° (NW) 05:26:18 436.500 FM
ITAMSAT 1 23 Oct 05:25:29 05:28:36 16° 305° (NW) 05:31:42 435.822 SSB
PCSat 23 Oct 05:29:44 05:35:09 76° 306° (NW) 05:40:37 145.825 MHz
Gurwin Techsat 1B 23 Oct 05:33:37 05:37:42 23° 301° (WNW) 05:41:46 435.225 FM
JAS-1B 23 Oct 05:40:05 05:43:00 14° 310° (NW) 05:46:04 435.800 - 435.900 CW/SSB
JAS-2 23 Oct 05:45:38 05:52:27 33° 92° (E) 05:59:21 435.800 - 435.900 CW/SSB, 435.910 FM
TMSAT-1 23 Oct 05:46:03 05:50:11 24° 300° (WNW) 05:54:17 436.925 FM
OPAL 23 Oct 06:01:34 06:06:20 37° 260° (W) 06:11:04 ?
STRAND 1 23 Oct 06:04:23 06:08:51 31° 63° (ENE) 06:13:21 ?
Hamsat 23 Oct 06:06:10 06:09:14 20° 92° (E) 06:12:18 145.90 MHz
AO-7 23 Oct 06:12:03 06:20:24 81° 292° (WNW) 06:28:44 29.400 - 29.500 MHz
Sapphire 23 Oct 06:51:43 06:56:18 27° 322° (NW) 07:00:55 437.095 MHz 1200 baud AX-25 AFSK
RS-15 23 Oct 06:54:34 07:05:38 67° 44° (NE) 07:17:06 29.354 - 29.394 USB, Beacon 29.352 USB
Uosat F 23 Oct 06:56:21 07:00:41 29° 297° (WNW) 07:05:00 435.120 FM
PCSat 23 Oct 07:15:30 07:19:30 20° 328° (NNW) 07:23:31 145.825 MHz
JAS-2 23 Oct 07:30:18 07:37:51 65° 291° (WNW) 07:45:36 435.800 - 435.900 CW/SSB, 435.910 FM
Hamsat 23 Oct 07:41:25 07:45:25 45° 289° (WNW) 07:49:25 145.90 MHz
STRAND 1 23 Oct 07:43:06 07:47:55 41° 262° (W) 07:52:48 ?
AO-7 23 Oct 08:05:51 08:12:05 25° 314° (NW) 08:18:20 29.400 - 29.500 MHz
SO-67 23 Oct 08:33:59 08:37:26 70° 285° (WNW) 08:40:51 435.3500 MHz FM
Sapphire 23 Oct 08:39:58 08:41:42 11° 347° (NNW) 08:43:26 437.095 MHz 1200 baud AX-25 AFSK
Saudisat 1A 23 Oct 08:43:11 08:47:29 59° 123° (ESE) 08:51:50 436.775 MHz
MaSat-1 23 Oct 08:48:42 08:50:40 17° 47° (NE) 08:52:30 437.345 MHz
HO-68 23 Oct 08:52:26 08:57:30 20° 88° (E) 09:02:31 435.675 MHz FM
PCSat 23 Oct 09:04:26 09:05:10 10° 354° (N) 09:05:55 145.825 MHz
RS-15 23 Oct 09:07:20 09:17:36 45° 249° (WSW) 09:28:17 29.354 - 29.394 USB, Beacon 29.352 USB
JAS-2 23 Oct 09:16:49 09:21:35 18° 311° (NW) 09:26:28 435.800 - 435.900 CW/SSB, 435.910 FM
Oscar 11 23 Oct 09:51:13 09:53:49 16° 90° (E) 09:56:24 145.825 FM, Beacon 2401.500 USB
Saudisat 1A 23 Oct 10:23:38 10:27:22 26° 324° (NW) 10:31:08 436.775 MHz
MaSat-1 23 Oct 10:24:08 10:26:21 23° 250° (WSW) 10:28:24 437.345 MHz
Sapphire 23 Oct 10:25:55 10:27:46 12° 14° (NNE) 10:29:37 437.095 MHz 1200 baud AX-25 AFSK
ZACube-1 23 Oct 10:35:27 10:38:33 19° 91° (E) 10:41:35 437.345 MHz
HO-68 23 Oct 10:38:53 10:46:08 89° 288° (WNW) 10:53:20 435.675 MHz FM
UKube-1 23 Oct 10:43:03 10:47:21 52° 101° (E) 10:51:36 145.840 MHz, 145.915 MHz
PCSat 23 Oct 10:48:27 10:51:11 14° 21° (NNE) 10:53:54 145.825 MHz
FUNcube-1 23 Oct 11:19:51 11:24:05 52° 100° (E) 11:28:11 145.950 - 145.970 MHz USB
KITSAT 1 23 Oct 11:21:09 11:25:15 15° 99° (E) 11:29:20 435.175 FM
Oscar 11 23 Oct 11:26:08 11:30:24 60° 288° (WNW) 11:34:38 145.825 FM, Beacon 2401.500 USB
Saudisat 1A 23 Oct 12:07:24 12:08:27 11° 347° (NNW) 12:09:29 436.775 MHz
Sapphire 23 Oct 12:08:27 12:13:08 28° 39° (NE) 12:17:47 437.095 MHz 1200 baud AX-25 AFSK
ZACube-1 23 Oct 12:11:05 12:15:14 46° 290° (WNW) 12:19:16 437.345 MHz
UKube-1 23 Oct 12:20:01 12:23:11 20° 299° (WNW) 12:26:22 145.840 MHz, 145.915 MHz
Oscar 19 23 Oct 12:20:53 12:24:30 20° 58° (ENE) 12:28:08 437.125 CW, 437.150 USB
HO-68 23 Oct 12:27:37 12:32:58 23° 309° (NW) 12:38:20 435.675 MHz FM
PCSat 23 Oct 12:31:05 12:36:11 39° 45° (NE) 12:41:14 145.825 MHz
AO-27 23 Oct 12:36:19 12:38:40 13° 52° (NE) 12:41:02 436.795 MHz FM
JAS-1B 23 Oct 12:47:51 12:52:48 30° 61° (ENE) 12:57:39 435.800 - 435.900 CW/SSB
FUNcube-1 23 Oct 12:57:05 13:00:05 19° 299° (WNW) 13:03:02 145.950 - 145.970 MHz USB
Oscar 16 23 Oct 13:04:47 13:09:39 43° 67° (ENE) 13:14:31 437.025 USB, Beacon 2401.1428
KITSAT 1 23 Oct 13:11:09 13:19:07 67° 119° (ESE) 13:27:08 435.175 FM
AO-Echo 23 Oct 13:12:48 13:16:55 27° 62° (ENE) 13:21:09 ?
Uribyol 2 23 Oct 13:22:07 13:26:36 30° 63° (ENE) 13:31:07 436.500 FM
ITAMSAT 1 23 Oct 13:27:41 13:32:14 31° 63° (ENE) 13:36:48 435.822 SSB
AO-7 23 Oct 13:35:18 13:39:38 16° 36° (NE) 13:43:59 29.400 - 29.500 MHz
Gurwin Techsat 1B 23 Oct 13:39:23 13:43:28 23° 60° (ENE) 13:47:33 435.225 FM
Saudisat 1A 23 Oct 13:49:04 13:50:03 11° 12° (NNE) 13:51:03 436.775 MHz
Sapphire 23 Oct 13:51:37 13:57:02 68° 240° (WSW) 14:02:24 437.095 MHz 1200 baud AX-25 AFSK
TMSAT-1 23 Oct 13:51:42 13:55:42 22° 59° (ENE) 13:59:42 436.925 FM
Oscar 19 23 Oct 13:58:12 14:03:20 71° 257° (WSW) 14:08:30 437.125 CW, 437.150 USB
SO-50 23 Oct 13:59:06 14:03:31 59° 123° (ESE) 14:08:07 436.795 FM
ISS 23 Oct 14:07:09 14:10:13 35° 145° (SE) 14:13:19 145.800 FM
AO-27 23 Oct 14:12:06 14:17:17 72° 72° (ENE) 14:22:31 436.795 MHz FM
PCSat 23 Oct 14:14:33 14:19:40 43° 245° (WSW) 14:24:45 145.825 MHz
JAS-1B 23 Oct 14:37:42 14:43:23 46° 261° (W) 14:48:51 435.800 - 435.900 CW/SSB
Oscar 16 23 Oct 14:44:43 14:49:09 29° 266° (W) 14:53:37 437.025 USB, Beacon 2401.1428
AO-Echo 23 Oct 14:50:47 14:55:28 45° 262° (W) 15:00:20 ?
Uosat F 23 Oct 14:58:11 15:00:55 15° 55° (NE) 15:03:40 435.120 FM
Uribyol 2 23 Oct 15:00:56 15:05:55 44° 261° (W) 15:10:56 436.500 FM
ITAMSAT 1 23 Oct 15:06:40 15:11:36 42° 262° (W) 15:16:34 435.822 SSB
KITSAT 1 23 Oct 15:07:28 15:15:02 42° 323° (NW) 15:22:38 435.175 FM
Gurwin Techsat 1B 23 Oct 15:17:46 15:23:01 62° 258° (WSW) 15:28:19 435.225 FM
Saudisat 1A 23 Oct 15:27:24 15:31:08 26° 36° (NE) 15:34:52 436.775 MHz
